Regional Weather Roundup
Issued by NWS Boston, MA

Home | Current Version | Previous Version | Text Only | Print | Product List | Glossary On
Versions: 1 2 3 4 5 6 7 8 9 10 11 12 13 14 15 16 17 18 19 20 21 22 23 24 25 26 27
000
ASUS41 KBOX 210110
RWRBOX

REGIONAL WEATHER ROUNDUP
NATIONAL WEATHER SERVICE TAUNTON MA
800 PM EST SAT JAN 20 2018

NOTE:  "FAIR" INDICATES FEW OR NO CLOUDS BELOW 12,000 FEET WITH NO
SIGNIFICANT WEATHER AND/OR OBSTRUCTIONS TO VISIBILITY.

MAZALL-210200-
EASTERN MASSACHUSETTS

CITY           SKY/WX    TMP DP  RH WIND       PRES   REMARKS
BOSTON         MOCLDY    43  27  53 SW10      29.90R
BEVERLY        FAIR      41  28  60 W7        29.88R
LAWRENCE       FAIR      39  27  62 SW6       29.90R
BEDFORD        FAIR      40  26  57 CALM      29.89R
BLUE HILL        N/A     41  26  55 W18G26    29.87R
NORWOOD        FAIR      46  27  47 W12       29.91R
MARSHFIELD     FAIR      43  27  52 W7        29.89R
PLYMOUTH       FAIR      44  26  49 W12       29.90R
TAUNTON        FAIR      42  26  53 W3        29.91R
NEW BEDFORD    FAIR      43  27  53 W10       29.91R
$$

MAZALL-210200-
CAPE COD AND THE ISLANDS

CITY           SKY/WX    TMP DP  RH WIND       PRES   REMARKS
FALMOUTH       FAIR      39  27  60 W6        29.92
HYANNIS        FAIR      44  27  51 W7        29.89R
CHATHAM        FAIR      43  28  55 W7        29.89R
PROVINCETOWN   FAIR      40  30  67 MISG      29.90
NANTUCKET      FAIR      38  35  89 W13       29.92R WCI  30
MARTHAS VNYRD  FAIR     N/A N/A N/A SW8       29.92R
$$

MAZALL-210200-
CENTRAL AND WESTERN MASSACHUSETTS

CITY           SKY/WX    TMP DP  RH WIND       PRES   REMARKS
WORCESTER      FAIR      38  25  59 W12       29.88R WCI  30
FITCHBURG      FAIR      41  29  62 W5        29.90R
ORANGE         FAIR      35  27  72 E3        29.91R
SPRINGFIELD    PTCLDY    40  27  60 W8        29.92R
WESTFIELD      FAIR      31  26  82 VRB6      29.94R WCI  25
NORTH ADAMS    FAIR      40  27  59 NW6       29.94R
PITTSFIELD     FAIR      39  26  59 W17G25    29.90R WCI  30
$$

RIZALL-210200-
RHODE ISLAND

CITY           SKY/WX    TMP DP  RH WIND       PRES   REMARKS
PROVIDENCE     MOCLDY    43  27  53 W12       29.92R
NEWPORT        FAIR      42  26  53 W7        29.92R
BLOCK ISLAND   FAIR      40  32  73 W15       29.95R WCI  32
SMITHFIELD     FAIR     N/A N/A N/A W6        29.91R
WESTERLY       FAIR      40  31  70 SW3       29.95R
$$

CTZALL-210200-
CONNECTICUT

CITY           SKY/WX    TMP DP  RH WIND       PRES   REMARKS
BRADLEY INTL   FAIR      39  27  62 S6        29.95R
HARTFORD       FAIR      43  27  53 W5        29.96R
BRIDGEPORT     FAIR      42  27  55 SW6       29.97R
DANBURY        FAIR      34  26  72 CALM      29.97R
GROTON         FAIR      41  26  55 W7        29.95R
NEW HAVEN      FAIR      38  26  62 CALM      29.97R
CHESTER        FAIR      41  27  56 W5        29.95R
MERIDEN        FAIR      30  27  88 CALM      29.96R
WILLIMANTIC    FAIR      43  26  51 CALM      29.94R
OXFORD         FAIR      39  26  59 W3        29.95R
$$

MEZ002-015-021-024-NHZ003-005-008-011-012-014-VTZ005-008-210200-
NORTHERN NEW ENGLAND

CITY           SKY/WX    TMP DP  RH WIND       PRES   REMARKS
PORTLAND ME    FAIR      34  27  75 S7        29.83R WCI  28
BANGOR ME      CLOUDY    41  26  55 W9        29.70R
CONCORD NH     FAIR      37  27  67 NW5       29.87R
MANCHESTER NH  FAIR      43  27  53 NW7       29.86R
NASHUA NH      FAIR      36  28  73 E3        29.89R
PORTSMOUTH NH  MOCLDY    42  26  54 W8        29.85R
JAFFREY NH     FAIR      37  28  70 CALM      29.87R
KEENE NH       FAIR      28  24  85 VRB3      29.91R
BURLINGTON VT  CLOUDY    38  27  64 SW5       29.88R
MT. WASHINGTON FOG       16  16 100 NW75G89     N/A  VSB 0   WCI -12
$$

NYZ052-076-210200-
EASTERN NEW YORK

CITY           SKY/WX    TMP DP  RH WIND       PRES   REMARKS
ALBANY         FAIR      38  26  62 CALM      29.97R
NEW YORK CITY  MOCLDY    48  27  44 W13       30.00R
$$

ANZALL-210200-
MARINE OBSERVATIONS

STATION/POSITION TIME  TEMP    WIND        PRES    VSBY  WAVE
                       AIR SEA DIR/SP/G                  HT/PER
                 (UTC) (F)     (DEG/KT/KT) (MB)    (MI)  (FT/S)
BOSTON BUOY      2350   42 40  220/ 10/ 12 1010.2          1/10
BUZZARDS BAY     0000   42     250/ 23/ 23 1012.2R
NANTUCKET SOUND  2350   38 37  250/ 10/ 12 1011.7          2/ 4
MASS BAY-STELLWA 0004   41 39              1009.8R         2/ 3
ISLE OF SHOALS   0000   45     260/ 12/ 12 1009.7R
S OF BLOCK IS    0043      40                N/A           6/ 7
$$

......................KEY.........................
  SKY/WX - SKY CONDITION/PRESENT WEATHER
  TMP    - TEMPERATURE IN FAHRENHEIT
  DWPT   - DEWPOINT IN FAHRENHEIT
  RH     - RELATIVE HUMIDITY IN PERCENT
  WIND   - DIRECTION AND SPEED IN MPH
  PRES   - MEAN SEA LEVEL PRESSURE IN INCHES OF HG
  WCI    - WIND CHILL INDEX
  VSB    - VISIBILITY IN MILES
  HX     - HEAT INDEX
  TC     - TEMPERATURE IN CELSIUS
  VRB    - VARIABLE WIND DIRECTION
  N/A    - NOT AVAILABLE




USA.gov is the U.S. government's official web portal to all federal, state and local government web resources and services.